CW6421 Weather Reports


Display with metric or nautical units.
time (UTC)temp
F
wind
direction
speed
MPH
gust
MPH
rain 1hr
in
rain 24hr
in
rain mn
in
humidity
%
barometer
mb
20260903135538 72 248 20.0 30.0 0.00 0.00 0.00 61 1014.4
20260903133529 72 257 20.0 32.0 0.00 0.00 0.00 60 1014.4
20260903132529 73 250 19.0 26.0 0.00 0.00 0.00 60 1014.4
20260903130530 74 250 19.0 28.0 0.00 0.00 0.00 60 1015.3
20260903125530 72 240 20.0 30.0 0.00 0.00 0.00 62 1015.3
20260903124533 71 234 16.0 27.0 0.00 0.00 0.00 62 1015.3
20260903122530 70 234 18.0 28.0 0.00 0.00 0.00 63 1015.3
20260903121534 70 221 18.0 23.0 0.00 0.00 0.00 63 1015.3
20260903120529 70 228 17.0 24.0 0.00 0.00 0.00 63 1015.9
20260903115530 69 215 18.0 23.0 0.00 0.00 0.00 64 1015.9
20260903114533 69 200 16.0 24.0 0.00 0.00 0.00 64 1015.9
20260903113530 69 218 17.0 21.0 0.00 0.00 0.00 64 1015.9
20260903112530 69 205 17.0 23.0 0.00 0.00 0.00 64 1015.9
20260903111532 69 206 13.0 24.0 0.00 0.00 0.00 64 1015.9
20260903110530 68 205 14.0 21.0 0.00 0.00 0.00 65 1016.8
20260903105529 68 200 13.0 20.0 0.00 0.00 0.00 65 1016.8
20260903104533 68 224 13.0 21.0 0.00 0.00 0.00 65 1016.8
20260903103530 68 219 17.0 20.0 0.00 0.00 0.00 65 1016.8
20260903102529 68 215 13.0 23.0 0.00 0.00 0.00 66 1016.8
20260903101532 68 221 15.0 23.0 0.00 0.00 0.00 66 1016.8
20260903100530 68 224 15.0 20.0 0.00 0.00 0.00 67 1017.3
20260903095529 68 220 16.0 20.0 0.00 0.00 0.00 69 1017.3
20260903094531 68 221 14.0 21.0 0.00 0.00 0.00 69 1017.3
20260903093530 68 226 16.0 22.0 0.00 0.00 0.00 69 1017.3
20260903092530 67 226 17.0 20.0 0.00 0.00 0.00 70 1017.3
20260903091532 67 215 12.0 19.0 0.00 0.00 0.00 70 1017.3
20260903090530 66 224 13.0 18.0 0.00 0.00 0.00 72 1017.8
20260903085529 66 230 15.0 17.0 0.00 0.00 0.00 72 1017.8
20260903083530 65 226 10.0 16.0 0.00 0.00 0.00 73 1017.8
20260903081531 65 238 12.0 18.0 0.00 0.00 0.00 74 1017.8
20260903080530 65 222 11.0 13.0 0.00 0.00 0.00 74 1018.0
20260903075528 64 240 13.0 15.0 0.00 0.00 0.00 75 1018.0
20260903072529 63 196 7.0 10.0 0.00 0.00 0.00 77 1018.0
20260903071538 63 194 7.0 9.0 0.00 0.00 0.00 78 1018.0
20260903070530 62 193 7.0 10.0 0.00 0.00 0.00 78 1018.3
20260903065617 62 196 6.0 11.0 0.00 0.00 0.00 78 1018.3
20260903064531 61 184 7.0 12.0 0.00 0.00 0.00 79 1018.3
20260903063529 61 187 5.0 11.0 0.00 0.00 0.00 79 1018.3
20260903062529 61 181 7.0 12.0 0.00 0.00 0.00 79 1018.3
20260903061533 61 224 6.0 12.0 0.00 0.00 0.00 79 1018.3
20260903060530 61 211 6.0 10.0 0.00 0.00 0.00 79 1018.4
20260903054531 61 218 9.0 10.0 0.00 0.00 0.00 79 1018.4
20260903053530 61 211 7.0 10.0 0.00 0.00 0.00 79 1018.4
20260903051532 61 238 7.0 10.0 0.00 0.00 0.00 79 1018.4
20260903050529 61 221 7.0 8.0 0.00 0.00 0.00 79 1018.3
20260903045529 60 234 9.0 10.0 0.00 0.00 0.00 78 1018.3
20260903044531 61 223 7.0 9.0 0.00 0.00 0.00 78 1018.3
20260903035527 60 200 6.0 7.0 0.00 0.00 0.00 78 1018.6
20260903034530 60 232 7.0 8.0 0.00 0.00 0.00 78 1018.6
20260903033529 60 223 6.0 7.0 0.00 0.00 0.00 78 1018.6
20260903032529 61 227 6.0 8.0 0.00 0.00 0.00 77 1018.6
20260903025528 61 238 5.0 8.0 0.00 0.00 0.00 77 1018.7
20260903024531 61 230 6.0 9.0 0.00 0.00 0.00 77 1018.7
20260903023530 61 228 4.0 8.0 0.00 0.00 0.00 77 1018.7
20260903021531 61 221 6.0 8.0 0.00 0.00 0.00 77 1018.7
20260903020529 61 217 6.0 8.0 0.00 0.00 0.00 77 1018.8
20260903015529 61 226 6.0 8.0 0.00 0.00 0.00 77 1018.8
20260903013529 62 240 4.0 5.0 0.00 0.00 0.00 77 1018.8
20260903011530 61 226 4.0 6.0 0.00 0.00 0.00 78 1018.8
20260903010529 61 233 5.0 7.0 0.00 0.00 0.00 78 1018.9
20260903004530 62 257 5.0 6.0 0.00 0.00 0.00 77 1018.9
20260903003530 62 240 6.0 6.0 0.00 0.00 0.00 78 1018.9
20260903002529 62 252 5.0 7.0 0.00 0.00 0.00 78 1018.9
20260903001530 62 235 6.0 6.0 0.00 0.00 0.00 78 1018.9
20260903000529 62 242 5.0 7.0 0.00 0.00 0.00 78 1018.7
20260902234530 62 226 6.0 6.0 0.00 0.00 0.00 78 1018.7
20260902232527 62 224 7.0 8.0 0.00 0.00 0.00 78 1018.7
20260902230529 62 220 5.0 5.0 0.00 0.00 0.00 78 1018.8
20260902225529 62 204 6.0 7.0 0.00 0.00 0.00 79 1018.8
20260902224531 62 220 6.0 7.0 0.00 0.00 0.00 79 1018.8
20260902223530 62 239 6.0 8.0 0.00 0.00 0.00 80 1018.8
20260902221532 61 227 1.0 4.0 0.00 0.00 0.00 81 1018.8
20260902220530 61 209 2.0 5.0 0.00 0.00 0.00 82 1018.8
20260902215530 61 206 3.0 6.0 0.00 0.00 0.00 82 1018.8
20260902214531 61 209 1.0 5.0 0.00 0.00 0.00 82 1018.8
20260902213535 61 200 3.0 5.0 0.00 0.00 0.00 82 1018.8
20260902212529 61 207 1.0 6.0 0.00 0.00 0.00 82 1018.8
20260902211533 61 190 1.0 6.0 0.00 0.00 0.00 82 1018.8
20260902205528 61 188 2.0 6.0 0.00 0.00 0.00 82 1018.7
20260902204531 61 200 4.0 6.0 0.00 0.00 0.00 82 1018.7
20260902203531 61 202 3.0 6.0 0.00 0.00 0.00 82 1018.7
20260902202528 61 191 3.0 6.0 0.00 0.00 0.00 81 1018.7
20260902201531 61 182 3.0 5.0 0.00 0.00 0.00 81 1018.7
20260902200531 62 198 5.0 6.0 0.00 0.00 0.00 81 1018.9
20260902194532 62 235 1.0 4.0 0.00 0.00 0.00 81 1018.9
20260902192528 62 221 0.0 4.0 0.00 0.00 0.00 81 1018.9
20260902185529 63 263 3.0 15.0 0.00 0.00 0.00 80 1018.4
20260902184532 63 303 3.0 16.0 0.00 0.00 0.00 79 1018.4
20260902183530 64 304 1.0 17.0 0.00 0.00 0.00 79 1018.4
20260902182529 64 300 2.0 16.0 0.00 0.00 0.00 79 1018.4
20260902181532 64 294 4.0 16.0 0.00 0.00 0.00 78 1018.4
20260902180530 64 305 4.0 14.0 0.00 0.00 0.00 77 1018.4
20260902174532 65 298 5.0 13.0 0.00 0.00 0.00 75 1018.4
20260902173529 65 298 5.0 12.0 0.00 0.00 0.00 75 1018.4
20260902172529 66 307 5.0 14.0 0.00 0.00 0.00 74 1018.4
20260902171531 66 254 10.0 13.0 0.00 0.00 0.00 73 1018.4
20260902170529 66 251 10.0 16.0 0.00 0.00 0.00 72 1018.4
20260902164532 67 256 8.0 16.0 0.00 0.00 0.00 70 1018.4
20260902163530 68 253 8.0 14.0 0.00 0.00 0.00 66 1018.4
20260902155529 71 239 8.0 14.0 0.00 0.00 0.00 57 1018.8
20260902154532 71 248 6.0 14.0 0.00 0.00 0.00 57 1018.8
20260902153530 71 246 6.0 15.0 0.00 0.00 0.00 56 1018.8
20260902152529 71 240 8.0 15.0 0.00 0.00 0.00 56 1018.8
20260902151532 71 298 4.0 14.0 0.00 0.00 0.00 56 1018.8
20260902145529 71 255 4.0 12.0 0.00 0.00 0.00 56 1019.2
20260902144532 71 264 5.0 11.0 0.00 0.00 0.00 57 1019.2
20260902143528 71 256 6.0 11.0 0.00 0.00 0.00 57 1019.2
20260902140530 71 244 6.0 16.0 0.00 0.00 0.00 57 1019.4